Weather History for CWCA - July, 2014

Change the Weather History Date:

Monday, July 21, 2014

  Actual Average Record
Temperature  
Mean Temperature 74 °F -  
Max Temperature 89 °F 61 °F 89 °F (2014)
Min Temperature 58 °F 44 °F 39 °F (2000)
Cooling Degree Days 8    
Growing Degree Days 24 (Base 50)    
Moisture  
Dew Point 58 °F    
Average Humidity 62    
Maximum Humidity 88    
Minimum Humidity 30    
Precipitation  
Precipitation 0.02 in - - ()
Sea Level Pressure  
Sea Level Pressure 29.96 in    
Wind  
Wind Speed 5 mph ()    
Max Wind Speed 14 mph    
Max Gust Speed -    
Visibility 14.7 miles    
Events Rain , Thunderstorm    
Averages and records for this station are not official NWS values.
T = Trace of Precipitation, MM = Missing Value Source: Averaged Metar Reports

Daily Weather History Graph

Daily Weather History Graph

Search for Another Location

Airport or City:

Trip Planner

Search our weather history database for the weather conditions in past years. The results will help you decide how hot, cold, wet, or windy it might be!

Date:

Astronomy

Jul. 21, 2014 Rise Set
Actual Time 4:45 AM ADT 9:02 PM ADT
Civil Twilight 3:57 AM ADT 9:49 PM ADT
Nautical Twilight 2:46 AM ADT 11:00 PM ADT
Astronomical Twilight 1:26 AM ADT 12:22 AM ADT
Moon 12:46 AM ADT (7/21) 4:30 PM ADT (7/21)
Length of Visible Light 17h 52m
Length of Day
16h 17m
Waning Crescent, 25% of the Moon is Illuminated
Jul 21
Waning Crescent
Jul 26
New
Aug 3
First Quarter
Aug 10
Full
Aug 17
Last Quarter

Hourly Weather History & Observations

Time (ADT) Temp. Heat Index Dew Point Humidity Pressure Visibility Wind Dir Wind Speed Gust Speed Precip Events Conditions
12:00 AM 68.0 °F - 57.2 °F 68% 30.01 in 15.0 mi SSW 3.5 mph - N/A   Mostly Cloudy
1:00 AM 68.0 °F - 55.4 °F 64% 30.01 in 15.0 mi SSW 4.6 mph - N/A   Mostly Cloudy
3:00 AM 62 °F - 56 °F 76% 30.00 in 15 mi SSW 4.6 mph - -   Scattered Clouds
3:00 AM 60.8 °F - 57.2 °F 88% 30.00 in 15.0 mi SSW 4.6 mph - N/A   Partly Cloudy
4:00 AM 60.8 °F - 55.4 °F 82% 30.00 in 15.0 mi South 4.6 mph - N/A   Partly Cloudy
5:00 AM 59.0 °F - 53.6 °F 82% 30.01 in 15.0 mi SW 4.6 mph - N/A   Partly Cloudy
6:00 AM 59.0 °F - 55.4 °F 88% 30.01 in 15.0 mi SSW 4.6 mph - N/A   Partly Cloudy
7:00 AM 60.8 °F - 55.4 °F 82% 30.01 in 15.0 mi SSW 6.9 mph - N/A   Partly Cloudy
8:00 AM 69.8 °F - 57.2 °F 64% 30.01 in 15.0 mi SW 9.2 mph - N/A   Partly Cloudy
9:00 AM 72 °F - 57 °F 50% 30.01 in 15 mi SSW 6.9 mph - -   Scattered Clouds
9:00 AM 71.6 °F - 57.2 °F 60% 30.01 in 15.0 mi SSW 6.9 mph - N/A   Partly Cloudy
10:00 AM 77.0 °F - 60.8 °F 57% 29.99 in 15.0 mi SSW 3.5 mph - N/A   Scattered Clouds
11:00 AM 80.6 °F 81.1 °F 59.0 °F 48% 29.98 in 15.0 mi South 4.6 mph - N/A   Mostly Cloudy
12:00 PM 82.4 °F 82.9 °F 60.8 °F 48% 29.96 in 15.0 mi SSW 3.5 mph - N/A   Mostly Cloudy
1:00 PM 78.8 °F - 60.8 °F 54% 29.96 in 15.0 mi SSW 5.8 mph - N/A   Mostly Cloudy
1:47 PM - - - N/A% - 15.0 mi SW 4.6 mph - N/A Rain Light Rain
2:23 PM - - - N/A% - 15.0 mi South 5.8 mph - N/A   Mostly Cloudy
2:50 PM - - - N/A% - 15.0 mi WSW 9.2 mph - N/A Rain Light Rain Showers
3:00 PM 81 °F - 55 °F 30% 29.92 in 15 mi WSW 9.2 mph - - Rain Light Rain Showers
3:00 PM 80.6 °F 80.5 °F 55.4 °F 42% 29.92 in 15.0 mi WSW 9.2 mph - N/A   Mostly Cloudy
3:45 PM - - - N/A% - 15.0 mi SW 4.6 mph - N/A   Mostly Cloudy
4:22 PM - - - N/A% - 12.0 mi NNW 11.5 mph - N/A Rain , Thunderstorm Thunderstorms and Rain
4:30 PM - - - N/A% - 12.0 mi North 13.8 mph - N/A Rain , Thunderstorm Light Thunderstorms and Rain
5:00 PM 75.2 °F - 66.2 °F 73% 29.91 in 12.0 mi SE 3.5 mph - N/A Rain , Thunderstorm Light Thunderstorms and Rain
5:07 PM - - - N/A% - 15.0 mi SSE 4.6 mph - N/A Thunderstorm Thunderstorm
5:45 PM - - - N/A% - 15.0 mi Calm Calm - N/A   Mostly Cloudy
6:00 PM 80.6 °F 81.8 °F 62.6 °F 54% 29.91 in 15.0 mi SSW 5.8 mph - N/A   Mostly Cloudy
7:00 PM 77.0 °F - 57.2 °F 50% 29.88 in 15.0 mi SW 3.5 mph - N/A   Mostly Cloudy
8:00 PM 71.6 °F - 57.2 °F 60% 29.89 in 15.0 mi SSW 3.5 mph - N/A   Scattered Clouds
9:00 PM 73 °F - 56 °F 46% 29.88 in 15 mi SSW 5.8 mph - -   Partly Cloudy
9:00 PM 73.4 °F - 57.2 °F 57% 29.88 in 15.0 mi SSW 5.8 mph - N/A   Partly Cloudy
10:00 PM 69.8 °F - 60.8 °F 73% 29.88 in 15.0 mi SW 5.8 mph - N/A   Partly Cloudy
11:00 PM 69.8 °F - 57.2 °F 64% 29.87 in 15.0 mi SW 8.1 mph - N/A   Partly Cloudy